Time[GMT],current_u[cm/s](10m),current_v[cm/s](10m),current_u[cm/s](14m),current_v[cm/s](14m),current_u[cm/s](18m),current_v[cm/s](18m),current_u[cm/s](22m),current_v[cm/s](22m),current_u[cm/s](26m),current_v[cm/s](26m),current_u[cm/s](30m),current_v[cm/s](30m),current_u[cm/s](34m),current_v[cm/s](34m),current_u[cm/s](38m),current_v[cm/s](38m),current_u[cm/s](42m),current_v[cm/s](42m),current_u[cm/s](46m),current_v[cm/s](46m),current_u[cm/s](50m),current_v[cm/s](50m),current_u[cm/s](54m),current_v[cm/s](54m),current_u[cm/s](58m),current_v[cm/s](58m)
2003-02-07 09:00,4.18,-2.96,4.19,-4.10,3.96,-4.38,3.99,-3.75,4.11,-3.81,4.54,-4.21,4.52,-4.53,4.69,-5.11,4.72,-5.20,4.47,-5.06,4.58,-4.72,5.27,-4.94,3.56,-5.53
2003-02-07 10:00,13.26,-3.79,13.34,-4.81,13.44,-4.78,13.44,-5.51,13.14,-5.18,13.86,-5.18,13.29,-5.34,12.92,-5.14,13.69,-5.65,14.14,-6.14,15.03,-5.26,15.46,-5.66,13.95,-6.92
2003-02-07 11:00,17.65,5.58,17.11,4.91,17.28,3.60,17.63,2.35,17.50,2.83,18.39,2.98,18.13,2.81,18.25,2.74,17.51,2.42,17.91,2.12,17.43,1.25,17.06,2.19,15.86,0.91
2003-02-07 12:00,18.10,5.81,17.19,5.35,17.30,4.96,17.67,4.76,17.76,4.47,17.96,4.11,18.31,4.00,18.49,3.74,18.82,3.31,18.65,3.16,18.38,2.67,18.36,2.35,15.56,1.24
2003-02-07 13:00,11.20,8.10,11.34,9.08,12.74,8.54,12.27,8.72,12.85,8.89,13.08,9.16,13.30,9.12,13.15,9.28,13.85,9.38,12.35,9.89,11.93,9.56,11.63,9.16,8.77,6.78
2003-02-07 14:00,11.39,-0.17,11.39,-0.17,11.18,0.19,11.57,0.30,11.68,0.64,10.95,0.64,10.69,1.19,10.05,0.49,10.10,-0.02,9.85,0.12,9.18,-0.07,9.18,-0.80,6.14,-1.46
2003-02-07 15:00,-1.91,0.49,-1.51,0.92,-1.29,0.15,-1.28,-0.26,-1.44,0.31,-1.36,0.75,-1.46,2.18,-1.75,2.83,-1.40,3.45,-2.12,3.03,-1.65,3.58,-1.76,3.24,-2.55,4.16
2003-02-07 16:00,3.40,1.91,2.72,2.13,3.12,1.83,3.32,1.47,3.67,1.36,2.86,1.65,3.16,2.05,3.31,2.61,3.84,2.56,3.54,2.89,3.94,2.59,3.90,3.09,3.34,2.52
2003-02-07 17:00,-6.43,1.38,-6.25,1.85,-6.68,1.52,-7.02,1.63,-6.66,1.83,-7.41,1.52,-6.50,1.99,-6.54,2.49,-6.39,2.33,-6.28,2.67,-6.50,2.71,-6.94,2.80,-6.86,3.24
2003-02-07 18:00,-5.60,-2.96,-5.54,-0.65,-5.31,-1.42,-5.01,-1.75,-4.68,-2.17,-4.57,-1.83,-5.19,-1.49,-5.18,-1.90,-5.14,-1.68,-4.71,-1.35,-4.66,-1.54,-4.83,-2.01,-3.98,-2.81
2003-02-07 19:00,-4.83,-0.55,-2.90,0.31,-2.38,1.40,-1.07,1.56,-0.48,1.32,-0.54,0.78,-0.26,-0.18,0.03,-0.82,-0.37,-1.98,-1.03,-2.58,-1.00,-1.95,-1.72,-1.64,-1.84,-0.84
2003-02-07 20:00,-1.76,2.51,-0.25,3.05,2.23,5.63,5.02,5.71,5.56,4.92,6.37,3.18,6.45,2.89,6.32,2.64,6.04,2.88,5.93,2.53,6.43,2.26,6.91,2.40,7.50,2.88
2003-02-07 21:00,-3.13,-4.33,-3.65,-1.05,-2.84,0.12,-1.44,0.31,0.51,0.04,2.84,-0.12,3.72,-1.01,4.07,-1.12,4.42,-0.92,4.74,-1.66,5.15,-1.64,6.14,-1.46,6.96,-0.71
2003-02-07 22:00,8.45,-2.99,8.75,-2.59,9.97,-1.41,11.53,-0.65,13.53,-0.39,13.67,-0.87,14.31,-0.58,14.93,-1.65,15.41,-1.51,15.06,-2.44,15.32,-2.27,14.76,-2.84,14.49,-1.57
2003-02-07 23:00,8.68,0.20,9.05,-0.01,8.50,-0.27,9.79,0.31,10.22,0.64,11.82,1.93,13.53,1.80,14.96,1.17,15.21,0.30,15.62,-0.41,15.47,-0.25,15.80,0.06,14.92,0.95
2003-02-08 00:00,11.67,-8.41,12.71,-7.69,12.93,-7.73,14.46,-6.15,15.66,-5.29,16.36,-4.46,17.45,-4.98,18.44,-5.53,19.66,-5.08,19.81,-5.24,18.99,-4.54,18.44,-3.35,17.56,-1.00
2003-02-08 01:00,10.37,0.48,9.97,1.51,10.69,1.19,11.04,1.40,11.45,1.41,12.33,1.25,14.39,2.05,15.40,1.81,16.55,2.87,17.54,3.05,18.51,4.37,18.06,4.87,15.38,6.59
2003-02-08 02:00,15.94,-7.70,15.13,-7.42,14.96,-5.38,15.90,-4.28,16.54,-3.27,16.20,-3.16,16.55,-2.95,17.16,-2.88,17.43,-2.39,16.36,-2.28,17.20,-1.93,16.66,-0.42,13.61,0.78
2003-02-08 03:00,10.70,-14.10,10.30,-13.79,9.64,-13.67,9.39,-12.81,7.96,-11.45,6.18,-12.48,6.74,-13.36,5.74,-13.85,5.62,-13.06,5.81,-13.00,5.34,-12.10,5.71,-10.85,5.34,-11.37
2003-02-08 04:00,5.14,-2.69,4.05,-2.89,4.08,-2.99,4.66,-3.55,5.17,-2.78,4.86,-1.73,4.39,0.64,4.02,1.57,2.86,1.65,1.94,1.60,1.08,2.39,0.07,2.31,-2.87,3.86
2003-02-08 05:00,12.11,-10.68,10.06,-9.70,9.06,-8.74,7.08,-7.64,7.25,-7.49,6.78,-7.31,5.24,-7.76,4.68,-7.61,4.91,-8.06,4.39,-8.42,3.98,-8.43,4.03,-7.17,3.18,-4.91
2003-02-08 06:00,2.26,-19.85,-0.09,-20.00,-0.87,-19.08,-0.68,-18.30,0.65,-18.23,1.80,-18.62,2.05,-18.03,1.84,-17.68,0.64,-17.82,-0.23,-18.06,-0.49,-18.24,-1.00,-18.28,-2.51,-15.91
2003-02-08 07:00,-2.57,-14.99,-3.32,-14.89,-3.09,-13.89,-3.20,-12.78,-3.41,-12.42,-3.53,-12.35,-3.37,-12.20,-3.41,-13.15,-4.31,-13.62,-5.33,-14.43,-5.63,-14.83,-5.66,-14.00,-6.57,-13.01
2003-02-08 08:00,-12.91,-5.05,-12.85,-5.97,-13.85,-5.74,-13.52,-6.17,-13.44,-6.46,-13.31,-5.48,-13.54,-5.03,-12.77,-5.53,-12.25,-5.90,-11.31,-6.99,-11.15,-7.57,-10.40,-7.98,-9.62,-7.44
2003-02-08 09:00,-1.64,-5.15,-0.68,-4.88,-1.36,-5.07,-1.19,-5.65,-1.12,-6.98,-1.42,-7.38,-1.57,-7.94,-2.14,-7.79,-0.94,-7.24,-0.65,-6.43,-1.57,-5.76,-0.94,-6.51,-2.93,-6.46
2003-02-08 10:00,8.61,-12.62,8.17,-12.53,8.10,-12.66,8.04,-14.24,8.35,-14.25,7.84,-15.02,7.57,-14.06,7.92,-13.12,7.21,-12.08,6.78,-12.41,6.98,-13.08,6.22,-12.99,4.22,-12.52
2003-02-08 11:00,16.05,-1.54,16.32,-1.77,16.07,-2.36,16.03,-1.12,15.78,-0.99,14.70,-1.92,14.10,-3.45,13.40,-4.27,12.39,-4.77,12.15,-3.90,12.13,-4.95,12.00,-4.47,11.10,-3.89
2003-02-08 12:00,22.12,-1.67,21.02,-1.46,21.97,-2.23,21.73,-3.23,20.59,-3.25,19.11,-3.88,18.33,-4.42,16.80,-5.27,16.10,-6.10,15.87,-6.37,16.17,-5.25,16.79,-4.13,15.14,-3.46
2003-02-08 13:00,15.66,-1.65,16.06,-1.22,16.99,-0.12,16.61,-0.23,16.69,0.21,16.59,0.18,17.36,-0.33,17.17,-0.38,16.18,-0.56,16.55,-0.77,15.84,-0.45,14.99,-0.38,8.68,-0.53
2003-02-08 14:00,14.75,2.25,14.34,2.24,15.38,2.95,14.67,1.81,15.11,1.00,15.77,0.88,16.51,0.47,16.88,0.26,17.98,-0.67,17.78,-1.04,17.67,-1.38,15.08,-1.81,9.00,-2.00
2003-02-08 15:00,10.08,1.85,10.10,0.71,11.37,0.24,10.92,-0.72,10.51,-1.46,10.88,-2.39,10.13,-3.75,9.08,-4.47,9.30,-5.24,8.73,-4.68,8.22,-4.72,5.65,-4.10,2.87,-3.13
2003-02-08 16:00,15.94,-7.70,15.27,-8.63,14.55,-7.58,13.62,-7.95,13.59,-7.13,13.07,-6.76,11.79,-7.75,10.67,-8.18,9.28,-8.05,7.84,-7.74,7.01,-7.77,5.49,-8.62,1.49,-8.10
2003-02-08 17:00,7.63,-8.11,5.86,-8.10,3.91,-8.55,2.38,-7.95,0.09,-6.84,-0.54,-7.54,-0.49,-8.46,-0.49,-9.19,-0.86,-10.44,-0.42,-11.25,-0.96,-10.78,-2.20,-10.83,-5.90,-11.37
2003-02-08 18:00,6.72,-5.67,5.35,-5.96,4.19,-5.56,2.89,-6.45,2.09,-7.31,2.51,-8.75,2.54,-8.84,1.77,-9.06,1.51,-9.97,1.03,-9.38,0.78,-9.97,-0.40,-10.21,-2.77,-9.22
2003-02-08 19:00,15.51,-5.85,13.75,-4.79,12.04,-4.97,11.12,-5.03,10.29,-5.79,9.80,-6.24,8.76,-7.68,7.75,-7.45,7.38,-7.25,6.76,-6.90,6.13,-6.88,5.83,-7.27,2.62,-8.40
2003-02-08 20:00,15.31,-13.50,13.35,-13.54,12.90,-15.23,11.62,-14.04,10.08,-15.21,8.56,-15.34,7.50,-15.64,7.42,-16.08,6.24,-15.58,6.42,-15.12,5.99,-14.72,5.92,-14.84,3.92,-15.11
2003-02-08 21:00,11.92,-11.46,11.36,-10.58,10.85,-10.62,9.47,-10.91,7.44,-11.08,6.32,-11.50,4.97,-11.89,4.27,-11.26,2.72,-10.56,2.34,-9.63,1.73,-9.28,1.51,-9.24,0.26,-9.60
2003-02-08 22:00,22.56,-9.76,21.64,-9.81,21.40,-9.68,18.62,-10.16,17.02,-10.73,15.27,-11.54,14.64,-10.78,13.61,-10.45,13.02,-10.21,11.92,-9.27,10.93,-8.73,10.57,-8.20,8.84,-8.70
2003-02-08 23:00,24.32,-7.90,24.16,-8.78,24.09,-8.91,23.32,-9.13,21.71,-8.96,20.35,-8.94,18.30,-8.69,16.23,-9.08,15.43,-7.75,13.80,-6.76,13.54,-6.21,12.88,-6.09,9.91,-6.63
2003-02-09 00:00,19.16,-3.35,18.37,-3.47,17.60,-4.42,17.20,-4.85,16.72,-5.71,15.93,-7.29,14.57,-7.27,13.21,-7.24,12.18,-6.18,10.86,-5.21,9.54,-4.24,9.29,-3.37,4.87,-3.91
2003-02-09 01:00,17.02,1.97,17.11,2.72,17.37,2.17,17.18,0.66,16.95,0.39,15.98,-0.20,15.30,0.33,14.31,0.88,14.35,1.10,13.42,0.73,12.43,1.28,10.97,1.27,7.88,1.53
2003-02-09 02:00,20.58,-5.75,20.54,-5.24,20.49,-5.78,19.17,-6.99,18.38,-6.07,17.88,-6.11,17.03,-6.77,17.07,-7.28,16.86,-7.65,16.94,-7.21,15.76,-6.72,14.33,-8.27,11.70,-7.78
2003-02-09 03:00,13.13,-0.08,12.58,-0.35,12.46,-0.28,11.98,-1.14,11.28,-1.97,10.54,-1.56,9.81,-1.56,9.40,-1.57,9.18,-0.80,9.53,-0.60,8.68,-0.53,2.89,-4.27,6.33,-0.68
2003-02-09 04:00,11.28,2.40,11.84,3.71,12.35,3.75,13.29,2.25,14.49,1.35,14.33,0.47,13.81,-1.35,13.66,-2.64,12.13,-3.49,10.13,-3.03,7.05,-2.45,3.81,-2.76,1.82,-1.98
2003-02-09 05:00,6.48,-7.71,5.64,-9.51,5.83,-8.73,6.81,-9.60,6.90,-9.57,7.32,-9.55,6.74,-9.72,6.42,-10.43,5.12,-10.60,4.58,-10.54,3.39,-9.64,2.27,-8.29,1.49,-8.83
2003-02-09 06:00,9.39,-9.17,9.28,-9.51,9.44,-6.45,10.38,-6.08,10.50,-6.87,9.98,-6.50,8.94,-7.94,6.92,-9.25,5.16,-9.65,5.71,-9.39,4.23,-9.30,2.61,-9.45,-0.02,-10.82
2003-02-09 07:00,6.70,-8.48,4.87,-8.28,3.47,-7.74,2.48,-7.92,1.99,-8.38,1.96,-8.28,1.41,-9.27,0.70,-8.96,0.31,-8.34,1.00,-7.83,1.30,-8.16,1.68,-8.78,1.18,-10.27
2003-02-09 08:00,8.38,-12.89,6.91,-13.94,7.09,-12.74,4.81,-12.77,2.68,-13.69,0.66,-14.27,0.41,-14.86,-0.32,-14.86,-1.02,-14.96,-0.27,-14.64,-0.64,-15.17,-0.63,-14.85,-1.25,-14.51
2003-02-09 09:00,6.52,-12.59,5.16,-12.56,4.56,-12.63,3.46,-13.16,3.53,-13.76,2.87,-13.64,3.50,-12.94,3.89,-12.10,4.45,-12.25,4.21,-11.80,3.97,-12.39,3.46,-13.16,2.24,-13.61
2003-02-09 10:00,10.62,-5.48,9.87,-6.84,9.61,-7.02,10.72,-6.91,9.81,-6.65,9.24,-6.82,9.06,-7.29,8.30,-7.19,8.66,-6.98,8.89,-6.71,8.07,-6.74,6.90,-7.38,6.16,-6.24
2003-02-09 11:00,8.08,-7.15,7.71,-6.22,7.34,-6.01,6.32,-5.36,5.83,-5.82,5.93,-5.79,5.23,-6.62,5.51,-6.53,4.84,-7.45,4.09,-8.09,3.61,-8.22,3.43,-8.69,2.08,-9.81
2003-02-09 12:00,18.77,-3.05,18.02,-2.63,18.27,-2.77,17.97,-2.44,17.19,-2.25,16.35,-1.87,15.07,-2.13,14.00,-2.02,13.29,-3.16,12.64,-4.18,11.85,-5.03,10.91,-5.40,8.80,-6.74
2003-02-09 13:00,21.34,1.02,22.95,0.86,23.16,1.96,23.24,3.13,23.29,2.21,24.05,1.38,24.64,1.14,24.82,1.60,24.13,2.55,24.28,3.11,24.15,2.87,22.14,2.60,17.81,2.09
2003-02-09 14:00,17.58,1.82,16.82,1.91,17.51,2.42,17.17,2.53,15.88,1.95,16.03,1.79,16.37,1.68,16.67,1.35,16.55,2.14,16.87,2.13,16.78,1.69,15.26,1.57,11.83,0.48
2003-02-09 15:00,16.43,-5.07,16.50,-4.94,16.32,-4.68,16.56,-5.86,17.26,-5.77,17.93,-6.30,17.01,-7.09,17.58,-7.24,18.18,-7.17,17.44,-7.48,16.83,-8.28,14.73,-8.57,11.04,-9.11
2003-02-09 16:00,6.39,0.58,5.97,0.57,6.89,0.62,6.43,0.80,5.00,-0.75,4.41,-1.23,4.46,-0.70,4.29,-1.16,4.11,-1.63,3.48,-1.60,2.51,-1.15,1.10,-1.66,-1.84,-2.30
2003-02-09 17:00,8.37,-4.88,7.94,-5.21,7.38,-4.33,6.86,-4.69,6.94,-4.98,6.67,-4.75,6.97,-3.62,6.03,-3.26,6.10,-4.60,5.62,-4.73,6.57,-4.77,2.77,-6.38,-2.73,-6.82
2003-02-09 18:00,4.07,-6.95,4.07,-7.67,2.75,-7.43,-0.24,-7.14,-2.14,-6.33,-2.14,-5.61,-2.08,-5.80,-2.66,-5.24,-3.33,-4.70,-2.59,-5.11,-2.21,-5.73,-4.07,-7.20,-7.26,-8.43
2003-02-09 19:00,4.75,0.11,3.45,-1.51,3.17,-2.00,2.85,-2.30,2.61,-1.85,2.42,-1.18,2.50,-1.47,2.63,-1.54,2.69,-2.14,3.38,-2.36,2.16,-2.09,2.04,-2.75,-0.48,-3.78
2003-02-09 20:00,0.21,-15.96,-0.31,-15.59,-0.53,-15.55,-1.95,-14.60,-2.38,-14.21,-2.29,-13.77,-2.98,-13.55,-3.35,-13.34,-3.86,-13.38,-4.48,-13.77,-5.73,-13.40,-7.60,-12.69,-8.63,-13.81
2003-02-09 21:00,11.70,-10.69,11.08,-8.89,10.13,-9.58,7.88,-10.43,6.47,-10.94,5.53,-10.59,4.53,-10.35,4.23,-10.02,3.84,-10.13,4.29,-9.17,4.31,-8.13,3.28,-7.80,2.12,-8.13
2003-02-09 22:00,3.33,-5.81,2.40,-6.18,2.40,-6.18,3.53,-4.71,3.71,-3.51,3.08,-2.76,2.68,-3.91,2.88,-4.59,2.82,-4.39,3.63,-3.95,2.64,-2.68,1.91,-1.95,0.76,-1.55
2003-02-09 23:00,11.31,-8.62,11.30,-10.39,10.84,-11.67,10.67,-12.54,10.11,-13.12,9.45,-13.73,8.45,-14.22,7.44,-11.81,5.19,-10.48,3.48,-9.61,2.92,-8.73,2.30,-9.12,1.26,-9.83
2003-02-10 00:00,8.67,-5.94,8.52,-4.32,9.55,-2.46,9.18,-2.99,8.73,-3.22,9.40,-3.03,9.63,-3.48,8.73,-3.22,8.66,-3.34,8.27,-3.45,8.25,-4.09,9.14,-4.66,6.68,-5.89
2003-02-10 01:00,19.87,-6.89,19.68,-6.95,19.25,-6.55,19.24,-5.41,19.18,-5.22,19.52,-5.32,19.83,-5.65,19.74,-5.37,20.28,-4.69,19.11,-4.61,18.60,-4.65,17.79,-5.09,14.04,-6.17
2003-02-10 02:00,17.26,-12.32,17.02,-12.18,16.86,-11.29,16.85,-10.88,17.43,-10.71,17.77,-11.55,18.18,-11.53,17.21,-11.40,17.66,-11.89,17.13,-11.84,16.66,-11.66,15.44,-12.11,11.19,-12.91
2003-02-10 03:00,12.04,-4.97,12.11,-6.31,11.50,-7.10,12.15,-7.54,11.99,-8.42,12.70,-9.47,12.22,-9.60,11.30,-9.66,11.21,-11.14,10.33,-10.98,9.85,-11.12,9.46,-11.23,5.64,-10.97
2003-02-10 04:00,4.99,-6.16,4.94,-5.97,5.38,-5.32,4.59,-5.86,3.32,-5.40,3.41,-6.10,2.56,-7.48,2.11,-8.45,1.23,-9.01,0.87,-8.49,0.25,-7.42,-0.24,-7.87,-2.96,-6.36
2003-02-10 05:00,6.17,-7.38,6.78,-5.13,5.09,-3.95,3.27,-4.89,3.56,-5.53,3.37,-5.59,3.29,-6.03,2.89,-6.45,3.29,-7.48,2.99,-7.88,1.60,-8.49,1.41,-8.54,-0.24,-7.87
2003-02-10 06:00,8.61,-8.98,6.01,-9.72,4.33,-8.22,1.77,-7.61,0.93,-6.50,1.06,-5.52,1.64,-5.36,1.17,-6.63,1.24,-7.97,1.15,-9.45,0.60,-10.44,0.26,-11.06,-0.68,-9.25
2003-02-10 07:00,3.61,-7.50,3.40,-7.87,2.80,-7.21,2.16,-7.18,1.05,-6.56,0.40,-6.85,-0.06,-7.40,-0.51,-8.37,-0.10,-10.54,-0.26,-12.87,-0.07,-13.54,-0.15,-13.98,-1.61,-13.98
2003-02-10 08:00,3.66,-1.86,3.98,-1.56,4.34,-2.08,3.11,-2.13,2.84,-0.85,2.61,-1.12,1.42,-3.13,1.05,-5.11,0.09,-6.11,0.31,-6.15,-0.76,-6.04,-0.83,-6.17,-1.45,-5.83
2003-02-10 09:00,3.83,-8.99,3.18,-9.28,2.44,-8.87,1.97,-10.15,1.45,-11.23,0.73,-12.69,0.48,-13.28,0.38,-14.04,-0.18,-13.89,0.12,-13.49,-0.84,-12.31,-1.31,-12.13,-1.76,-12.36
2003-02-10 10:00,8.37,-7.79,7.74,-9.22,7.59,-9.79,8.51,-9.73,8.47,-10.68,8.06,-12.15,6.48,-12.08,5.08,-13.73,4.75,-13.31,4.34,-12.59,3.46,-12.43,3.86,-12.00,3.77,-11.71
2003-02-10 11:00,9.83,-4.15,9.92,-4.13,9.55,-3.92,8.96,-4.40,8.11,-5.06,7.82,-5.14,7.22,-5.94,5.91,-6.83,5.61,-6.51,4.83,-6.31,3.80,-5.99,3.54,-5.44,3.74,-5.07
2003-02-10 12:00,11.83,-3.89,11.65,-4.36,11.23,-3.96,11.90,-4.49,11.78,-5.15,10.84,-6.98,9.81,-7.38,9.04,-6.87,8.07,-6.01,8.14,-5.89,8.08,-5.69,8.00,-5.40,7.33,-4.87
2003-02-10 13:00,22.22,7.41,22.22,5.96,21.67,5.69,20.63,4.98,19.14,4.35,18.75,3.19,18.56,2.41,17.14,1.90,16.47,1.71,16.12,1.81,14.94,2.31,14.67,3.27,13.60,2.65
2003-02-10 14:00,25.14,9.19,24.84,8.79,23.27,8.44,22.05,7.26,21.64,6.52,20.35,5.21,19.64,4.80,19.16,3.93,18.33,3.90,17.07,3.96,17.00,4.56,16.42,5.13,14.95,4.81
2003-02-10 15:00,12.35,2.29,11.58,0.62,11.06,0.26,11.58,-1.57,10.98,-2.37,9.55,-2.46,8.42,-2.16,7.53,-2.31,7.80,-1.82,6.43,-1.38,6.73,-0.98,6.29,-0.90,3.71,-4.24
2003-02-10 16:00,16.33,2.19,15.93,1.76,15.33,1.69,12.77,1.89,11.63,1.15,10.84,1.75,10.23,2.41,8.91,2.66,8.25,1.33,7.18,1.44,6.84,1.54,6.30,0.87,5.33,-1.18
2003-02-10 17:00,16.55,1.42,16.25,-0.44,15.51,-1.48,13.93,-2.14,13.59,-2.03,10.98,-2.37,10.29,-1.42,9.56,-1.42,10.21,-1.13,8.44,-1.12,7.98,-1.35,6.88,-1.15,4.56,-4.31
2003-02-10 18:00,9.17,6.48,9.10,4.90,8.31,4.77,7.10,3.91,6.62,3.04,5.09,2.19,3.46,1.72,1.93,2.32,0.88,2.75,-0.32,3.65,-1.38,3.35,-1.86,3.21,-1.62,1.30
2003-02-10 19:00,9.68,1.42,9.96,0.46,9.20,-0.17,6.91,-0.52,6.68,-0.79,6.13,-1.05,4.96,-3.15,3.34,-4.04,2.45,-4.19,1.07,-3.02,0.51,-2.87,-0.48,-3.05,-0.68,-4.88
2003-02-10 20:00,6.20,-5.30,5.43,-6.24,4.26,-6.89,4.10,-7.77,3.28,-7.80,2.53,-7.39,1.70,-7.00,-0.01,-6.87,-1.59,-6.80,-3.59,-5.61,-3.88,-4.23,-5.01,-5.39,-3.88,-5.69
2003-02-10 21:00,4.09,-10.27,3.29,-10.40,2.89,-10.82,2.69,-11.92,2.53,-12.07,2.72,-12.02,1.51,-12.88,0.49,-12.97,-1.04,-13.41,-2.12,-12.57,-2.78,-12.45,-3.70,-11.78,-3.55,-11.94
2003-02-10 22:00,8.63,-5.43,7.42,-5.57,6.81,-6.68,7.59,-6.87,7.14,-6.38,6.28,-6.31,5.49,-5.71,4.76,-4.98,2.86,-4.17,2.04,-3.47,1.80,-3.75,1.06,-4.06,1.17,-4.45
2003-02-10 23:00,6.59,-10.28,5.61,-10.87,4.89,-10.87,3.90,-11.05,2.96,-11.43,1.48,-12.06,0.18,-12.22,-0.28,-12.46,-1.20,-13.24,-1.73,-10.28,-0.99,-11.42,-1.34,-11.31,-1.65,-10.56
2003-02-11 00:00,14.62,-6.00,14.26,-6.21,12.99,-6.47,11.76,-6.93,11.33,-6.84,10.21,-6.95,9.76,-6.46,8.49,-6.41,8.58,-5.24,8.23,-4.40,8.14,-4.43,8.57,-3.05,8.30,-3.55
2003-02-11 01:00,19.22,1.56,19.33,1.17,18.76,0.59,17.66,0.07,16.15,0.26,15.89,0.08,15.41,0.67,14.63,1.59,14.27,2.12,13.82,2.61,13.88,2.73,14.08,2.79,13.32,2.88
2003-02-11 02:00,14.67,1.81,14.53,0.84,13.12,0.33,12.45,-0.59,11.98,-0.41,11.33,0.02,10.54,-0.10,10.23,-0.50,9.63,0.16,8.87,0.98,9.16,1.07,8.91,1.93,8.28,1.96
2003-02-11 03:00,13.51,4.39,13.36,3.83,12.47,3.68,11.45,3.60,10.41,3.61,9.39,4.25,8.77,3.87,8.97,3.92,8.10,3.68,7.76,3.78,7.56,4.46,7.04,5.56,6.00,6.30
2003-02-11 04:00,11.80,0.57,11.77,0.67,11.48,0.59,10.37,-0.25,9.30,-0.14,8.17,0.89,7.75,1.28,7.65,1.99,7.62,2.08,6.95,1.89,7.52,2.78,6.63,2.63,6.10,2.68
2003-02-11 05:00,4.11,-3.09,2.19,-2.91,2.09,-2.94,1.31,-2.75,0.76,-3.01,0.73,-2.18,0.67,-1.26,0.47,-0.91,0.07,-1.33,0.28,-0.96,-0.26,-0.91,-1.84,-1.57,-2.94,-0.63
2003-02-11 06:00,-2.14,-13.93,-2.25,-13.55,-2.39,-13.07,-4.52,-13.26,-5.88,-13.23,-5.76,-12.57,-5.66,-12.55,-5.50,-12.40,-5.33,-11.52,-5.69,-11.72,-6.35,-12.33,-6.54,-13.11,-8.28,-13.19
2003-02-11 07:00,8.76,-12.78,6.56,-13.10,5.67,-11.79,5.24,-11.40,3.99,-11.03,1.80,-10.62,0.42,-10.91,0.56,-10.66,0.05,-11.43,0.45,-11.00,0.48,-11.10,0.59,-11.48,-1.47,-12.28
2003-02-11 08:00,5.49,-12.26,3.98,-11.34,3.77,-10.26,3.65,-8.73,2.07,-8.67,-0.06,-8.86,-1.06,-7.90,-2.93,-7.91,-3.70,-8.14,-3.59,-7.79,-3.32,-8.75,-3.32,-8.75,-6.12,-9.87
2003-02-11 09:00,5.77,-15.41,5.32,-16.37,5.73,-14.90,6.13,-15.20,5.80,-14.77,4.92,-14.61,3.41,-15.15,2.54,-14.67,0.70,-14.05,-0.74,-13.74,-2.65,-13.97,-3.57,-14.03,-5.31,-15.57
2003-02-11 10:00,11.06,-16.07,9.26,-13.05,11.32,-10.80,11.59,-10.30,11.21,-11.14,9.13,-12.26,6.55,-13.41,5.01,-13.85,2.99,-13.71,1.98,-12.33,0.84,-11.62,-0.18,-10.98,2.09,-13.45
2003-02-11 11:00,18.63,-15.26,17.57,-14.83,16.22,-13.76,16.55,-14.19,15.55,-13.23,14.59,-13.50,14.05,-13.45,14.12,-12.60,12.29,-11.66,10.75,-10.65,8.32,-10.51,6.84,-10.42,1.31,-18.35
2003-02-11 12:00,7.74,-19.00,7.78,-18.78,9.56,-18.48,10.25,-17.24,10.22,-16.42,10.61,-16.31,10.29,-17.02,9.27,-17.11,8.08,-16.93,8.05,-16.10,7.71,-16.00,7.95,-16.13,1.99,-13.47
2003-02-11 13:00,15.88,-12.92,16.01,-12.68,17.03,-14.78,18.24,-16.10,18.84,-17.80,17.64,-16.16,16.33,-12.69,15.45,-10.34,14.78,-10.54,15.13,-11.06,13.62,-12.32,13.54,-11.31,9.80,-6.97
2003-02-11 14:00,11.15,-14.59,11.09,-16.17,10.85,-15.72,10.98,-15.79,10.98,-15.06,11.31,-14.76,11.35,-14.54,12.44,-14.01,12.44,-14.01,12.62,-13.55,12.53,-12.85,11.62,-13.31,8.68,0.93
2003-02-11 15:00,5.16,-6.01,4.69,-5.11,5.20,-4.34,5.83,-3.63,6.24,-2.89,6.35,-3.28,6.51,-3.13,6.28,-3.40,6.03,-3.99,5.83,-4.36,5.66,-5.97,4.48,-6.20,3.54,-6.89
2003-02-11 16:00,11.21,-13.33,10.53,-11.34,11.29,-9.25,11.34,-9.44,12.10,-8.81,12.89,-8.68,13.59,-9.31,13.68,-9.60,13.73,-9.07,13.47,-8.52,14.28,-8.08,13.07,-6.76,7.96,-6.35
2003-02-11 17:00,12.93,-7.73,11.72,-7.87,11.70,-7.78,11.04,-6.20,10.32,-5.88,10.65,-6.31,10.68,-5.68,9.69,-5.13,9.14,-5.39,9.62,-5.25,9.14,-5.39,7.37,-4.65,4.56,-4.31
2003-02-11 18:00,0.59,-1.70,-0.52,-1.09,1.65,-1.40,1.02,0.08,0.40,0.43,0.18,-0.26,0.47,-0.18,1.96,0.04,3.09,-0.26,3.68,0.22,3.91,1.23,3.53,1.84,0.82,2.21
2003-02-11 19:00,-10.23,-1.69,-10.95,-0.64,-11.28,-0.22,-11.78,-0.99,-11.39,-0.56,-11.99,0.10,-11.58,0.84,-11.65,0.72,-11.33,1.43,-10.89,0.62,-11.51,0.24,-11.90,1.58,-11.61,0.94
2003-02-11 20:00,-3.73,-7.31,-2.77,-7.04,-1.13,-6.57,-0.91,-6.61,-0.10,-6.17,0.88,-5.99,1.54,-6.11,1.15,-6.54,0.62,-6.89,0.35,-6.66,-0.09,-6.58,-0.75,-5.73,-1.07,-5.72
2003-02-11 21:00,-9.48,-2.51,-8.69,-1.97,-7.28,-3.65,-5.68,-5.58,-4.77,-6.57,-3.74,-7.63,-3.25,-7.17,-2.67,-7.74,-2.85,-8.20,-2.04,-7.76,-2.57,-8.44,-3.19,-7.37,-2.74,-7.13
2003-02-11 22:00,-15.00,-2.12,-14.89,-1.04,-14.20,-1.26,-12.92,-1.00,-10.92,-2.19,-9.93,-3.47,-9.35,-4.76,-8.17,-5.98,-8.39,-5.94,-7.59,-6.55,-7.63,-7.49,-7.11,-7.86,-7.18,-7.26
2003-02-11 23:00,-4.64,1.69,-4.70,1.88,-4.96,1.70,-3.83,1.40,-2.62,0.81,-1.66,-1.83,-0.35,-3.85,0.50,-5.37,1.28,-5.56,1.39,-5.22,1.98,-4.74,1.96,-5.37,1.98,-4.74
2003-02-12 00:00,-3.23,2.19,-3.68,2.69,-3.56,2.62,-3.68,2.69,-3.62,2.81,-3.46,1.92,-2.43,0.14,-0.42,-1.79,0.35,-3.02,1.38,-3.35,1.43,-4.27,2.06,-4.30,2.50,-4.38
2003-02-12 01:00,0.59,0.48,0.63,0.70,0.64,1.02,0.04,0.95,0.40,1.15,0.29,1.54,0.44,-0.08,2.35,-1.30,4.38,-3.32,4.96,-4.61,4.96,-5.34,6.38,-5.56,6.19,-6.34
2003-02-12 02:00,1.07,-2.29,-0.30,-3.31,0.36,-2.71,-0.40,-2.61,-0.18,-1.92,0.43,-2.58,1.25,-4.01,2.67,-5.68,2.68,-6.10,3.80,-6.71,4.60,-8.04,4.57,-7.95,2.97,-8.20
2003-02-12 03:00,4.96,2.67,5.56,2.74,5.97,2.75,6.32,2.64,6.10,2.68,6.19,1.26,6.37,-0.46,5.67,-2.01,6.36,-3.69,7.23,-4.17,7.85,-4.51,7.82,-4.42,6.39,-5.24
2003-02-12 04:00,15.18,0.40,14.93,1.26,15.36,0.87,15.01,0.98,13.90,0.14,12.56,-0.98,12.94,-1.59,13.11,-2.17,13.22,-2.56,14.47,-3.65,14.51,-4.16,15.09,-4.72,10.62,-3.30
2003-02-12 05:00,5.95,-0.06,5.49,-0.30,5.62,-0.37,5.43,-0.42,4.41,-0.50,2.93,-0.41,2.06,-1.39,2.28,-2.15,2.30,-3.29,1.84,-4.26,2.02,-5.25,1.49,-5.19,-1.09,-5.62
2003-02-12 06:00,9.63,3.07,8.64,2.89,8.51,1.51,9.01,1.96,8.43,1.79,7.36,1.17,6.94,0.84,6.13,-0.32,6.07,-0.86,5.88,-1.64,5.61,-2.14,4.73,-1.97,4.37,-1.45
2003-02-12 07:00,-5.08,-0.42,-5.32,-0.69,-5.26,-0.88,-5.11,-1.05,-5.75,-0.61,-7.01,0.49,-7.86,0.56,-7.97,0.21,-7.91,-1.44,-8.25,-2.78,-8.46,-3.15,-8.66,-3.52,-8.07,-3.04
2003-02-12 08:00,-0.72,3.23,-0.06,4.56,-0.75,4.05,-0.88,2.35,-0.45,1.22,-0.36,1.25,-0.70,1.36,-0.18,0.26,-0.00,0.73,-0.45,1.22,-1.46,0.73,-2.86,-0.20,-2.81,-1.43
2003-02-12 09:00,-2.97,5.29,-2.53,4.48,-1.60,4.12,-1.16,4.77,-0.95,4.41,-0.95,5.14,0.08,5.54,-0.17,6.40,-0.34,6.25,0.20,5.47,0.56,5.67,0.64,5.39,0.10,5.44
2003-02-12 10:00,-9.21,-5.24,-7.27,-5.83,-6.72,-6.30,-5.46,-7.08,-4.79,-7.61,-4.46,-8.04,-3.91,-7.78,-4.35,-8.42,-3.21,-8.41,-2.88,-8.11,-3.17,-8.19,-4.11,-7.42,-4.94,-8.18
2003-02-12 11:00,-6.29,-11.06,-6.67,-10.86,-6.65,-10.54,-6.57,-11.56,-5.91,-10.95,-4.58,-12.34,-2.72,-14.10,-2.02,-14.73,-1.46,-14.88,-1.31,-14.31,-0.97,-14.74,-0.54,-14.82,-0.93,-16.70
2003-02-12 12:00,3.26,-3.75,2.62,-5.49,1.16,-3.31,0.18,-3.17,0.99,-3.46,2.32,-3.39,4.47,-3.61,5.73,-4.39,6.52,-6.04,6.48,-6.26,6.67,-6.93,7.36,-7.88,6.92,-8.52
2003-02-12 13:00,5.68,7.04,6.66,6.90,5.20,9.81,5.73,7.57,4.32,6.34,3.96,5.40,4.30,2.79,4.70,-0.42,4.59,-2.95,5.64,-4.42,6.17,-5.20,6.86,-6.15,5.97,-7.03
2003-02-12 14:00,11.22,3.32,12.17,1.82,12.51,3.17,11.95,3.32,9.17,3.57,9.59,2.12,9.51,0.23,9.88,-0.70,9.49,-2.27,8.51,-3.91,8.73,-5.40,9.84,-7.48,10.76,-9.60
2003-02-12 15:00,7.68,9.49,6.75,6.20,5.54,6.79,6.89,7.18,6.26,5.75,5.83,4.69,6.23,3.66,5.79,3.01,6.41,1.94,6.89,0.62,6.77,-0.03,6.55,-0.72,4.08,-3.72
2003-02-12 16:00,11.00,3.36,8.91,2.66,7.87,2.67,8.18,3.39,8.55,3.91,8.90,3.80,9.57,3.26,9.01,4.14,9.21,3.79,9.58,5.04,8.70,5.20,8.57,4.95,6.82,5.60
2003-02-12 17:00,14.07,-4.81,12.51,-5.88,9.62,-5.98,9.07,-6.97,9.53,-7.46,8.28,-7.82,8.30,-6.46,7.57,-5.73,7.82,-5.14,7.63,-5.20,6.90,-4.47,7.08,-4.73,0.51,-4.33
2003-02-12 18:00,23.50,-10.84,23.57,-10.72,17.56,-8.28,14.91,-6.65,12.53,-7.43,11.28,-7.79,8.83,-7.56,6.39,-7.43,4.58,-8.36,4.06,-9.45,9.07,-9.15,7.00,-13.18,17.69,-14.90
2003-02-12 19:00,11.33,-17.04,7.98,-14.04,7.17,-14.48,9.26,-15.24,9.20,-14.32,7.18,-13.44,5.85,-13.51,6.91,-13.21,7.02,-14.32,7.43,-15.03,7.24,-15.82,6.29,-15.78,17.26,-13.05
2003-02-12 20:00,7.97,-18.00,8.05,-19.74,6.94,-19.86,5.92,-19.21,4.95,-19.80,5.36,-20.52,6.06,-19.69,4.89,-19.61,3.68,-17.56,2.40,-14.19,-0.21,-13.06,-4.30,-13.30,-1.03,-16.00
2003-02-12 21:00,5.18,-12.98,3.03,-13.49,3.10,-13.36,3.24,-11.66,3.72,-11.52,3.69,-12.15,2.17,-11.55,0.97,-10.64,-0.51,-11.28,-0.08,-12.40,-0.87,-11.48,-1.23,-10.96,0.93,-12.32
2003-02-12 22:00,-6.15,-15.91,-6.41,-15.36,-6.52,-15.71,-6.15,-16.64,-6.21,-17.18,-5.96,-16.59,-4.87,-17.11,-5.74,-17.35,-6.51,-17.57,-6.95,-17.49,-7.63,-17.27,-8.82,-17.51,-8.80,-18.65
2003-02-12 23:00,7.51,-11.68,5.53,-11.31,6.74,-13.36,8.20,-14.81,8.52,-14.83,8.74,-15.60,8.50,-15.87,8.83,-16.30,8.31,-16.65,8.16,-15.76,8.12,-15.25,6.81,-13.96,3.30,-14.04
2003-02-13 00:00,2.34,-17.95,0.11,-15.26,0.51,-14.83,-0.66,-15.48,-0.27,-16.10,0.44,-16.41,-0.14,-15.12,0.25,-15.01,-0.14,-15.12,0.07,-14.02,0.97,-13.56,-0.26,-12.87,1.26,-12.75
2003-02-13 01:00,-2.86,-9.25,-2.86,-8.52,-2.66,-8.15,-4.09,-7.52,-3.00,-7.31,-1.30,-7.45,-1.66,-6.92,-0.45,-6.06,-0.93,-6.20,-0.91,-5.88,-1.57,-6.48,-2.67,-7.74,-11.26,-5.00
2003-02-13 02:00,-0.28,-13.91,-1.44,-11.65,-0.29,-10.59,1.31,-10.03,3.11,-9.41,3.10,-8.27,3.96,-8.02,4.43,-7.47,4.50,-7.34,3.17,-7.41,3.04,-7.35,2.64,-7.77,-0.67,-3.83
2003-02-13 03:00,5.92,-16.30,5.71,-13.76,6.06,-12.41,6.04,-11.27,4.10,-10.68,3.31,-10.81,3.33,-10.90,4.67,-9.38,6.05,-8.04,8.41,-6.85,8.13,-8.38,7.82,-8.78,6.81,-10.32